Location: Newark
(23.1300°N, 73.6109°E)
Time: 23:01:39
(UTC+00:00)

NOAA 18 - Pass Details

Date: 26 June 2021
Orbit: 840 x 861 km, 99.0° (Epoch: 27 July)

Event Time Altitude Azimuth Distance (km) Brightness Sun altitude
Exits shadow 15:49:14 26° 69° (ENE) 1,616 6.4 -22.9°
Drops below altitude 10° 15:53:39 10° 16° (NNE) 2,494 7.9 -23.7°
Sets 15:56:22 0° 5° (N) 3,434 8.9 -24.1°
